| time (UTC) | temp F | wind direction | speed MPH | gust MPH | rain 1hr in | rain 24hr in | rain mn in | humidity % | barometer mb |
| 20260503040517 | 49 | 233 | 1.0 | 2.0 | 0.00 | 0.01 | 0.00 | 90 | 1009.8 |
| 20260503035521 | 49 | 0.0 | 0.0 | 0.00 | 0.01 | 0.01 | 90 | 1009.8 | |
| 20260503034518 | 49 | 11 | 1.0 | 1.0 | 0.00 | 0.01 | 0.01 | 90 | 1009.7 |
| 20260503033518 | 49 | 316 | 1.0 | 2.0 | 0.00 | 0.01 | 0.01 | 90 | 1009.7 |
| 20260503032518 | 49 | 296 | 1.0 | 3.0 | 0.00 | 0.01 | 0.01 | 90 | 1009.8 |
| 20260503031518 | 49 | 319 | 2.0 | 3.0 | 0.00 | 0.01 | 0.01 | 90 | 1009.9 |
| 20260503030518 | 49 | 236 | 1.0 | 2.0 | 0.00 | 0.01 | 0.01 | 90 | 1009.9 |
| 20260503025519 | 49 | 305 | 2.0 | 2.0 | 0.00 | 0.01 | 0.01 | 89 | 1010.1 |
| 20260503024519 | 49 | 307 | 1.0 | 1.0 | 0.00 | 0.01 | 0.01 | 89 | 1010.1 |
| 20260503023519 | 49 | 290 | 0.0 | 1.0 | 0.00 | 0.01 | 0.01 | 88 | 1010.1 |
| 20260503022519 | 49 | 0.0 | 0.0 | 0.00 | 0.01 | 0.01 | 88 | 1010.0 | |
| 20260503021639 | 49 | 0.0 | 0.0 | 0.00 | 0.01 | 0.01 | 87 | 1009.9 | |
| 20260503020516 | 49 | 0.0 | 0.0 | 0.00 | 0.01 | 0.01 | 87 | 1010.2 | |
| 20260503015536 | 49 | 0.0 | 0.0 | 0.00 | 0.01 | 0.01 | 86 | 1010.4 | |
| 20260503014517 | 50 | 4 | 0.0 | 1.0 | 0.00 | 0.01 | 0.01 | 85 | 1010.4 |
| 20260503013520 | 50 | 228 | 0.0 | 1.0 | 0.00 | 0.01 | 0.01 | 84 | 1010.4 |
| 20260503012517 | 50 | 193 | 0.0 | 2.0 | 0.00 | 0.01 | 0.01 | 84 | 1010.3 |
| 20260503011537 | 50 | 213 | 0.0 | 2.0 | 0.00 | 0.01 | 0.01 | 84 | 1010.3 |
| 20260503010517 | 50 | 179 | 1.0 | 3.0 | 0.00 | 0.01 | 0.01 | 84 | 1010.2 |
| 20260503005517 | 50 | 202 | 1.0 | 2.0 | 0.00 | 0.01 | 0.01 | 84 | 1010.2 |
| 20260503004520 | 50 | 171 | 1.0 | 2.0 | 0.00 | 0.01 | 0.01 | 84 | 1010.1 |
| 20260503003518 | 50 | 165 | 2.0 | 4.0 | 0.00 | 0.01 | 0.01 | 84 | 1010.0 |
| 20260503002518 | 50 | 172 | 2.0 | 5.0 | 0.00 | 0.01 | 0.01 | 84 | 1009.9 |
| 20260503001518 | 50 | 170 | 2.0 | 2.0 | 0.00 | 0.01 | 0.01 | 84 | 1010.0 |
| 20260503000518 | 50 | 189 | 1.0 | 2.0 | 0.00 | 0.01 | 0.01 | 83 | 1010.1 |
| 20260502235518 | 50 | 189 | 1.0 | 2.0 | 0.00 | 0.01 | 0.01 | 83 | 1010.0 |
| 20260502234538 | 51 | 226 | 1.0 | 3.0 | 0.00 | 0.01 | 0.01 | 82 | 1010.2 |
| 20260502233518 | 51 | 194 | 1.0 | 1.0 | 0.00 | 0.01 | 0.01 | 82 | 1010.1 |
| 20260502232540 | 51 | 162 | 2.0 | 3.0 | 0.00 | 0.01 | 0.01 | 82 | 1009.9 |
| 20260502231516 | 51 | 149 | 2.0 | 3.0 | 0.00 | 0.01 | 0.01 | 81 | 1010.0 |
| 20260502230516 | 51 | 155 | 2.0 | 3.0 | 0.00 | 0.01 | 0.01 | 82 | 1010.1 |
| 20260502225519 | 51 | 167 | 1.0 | 2.0 | 0.00 | 0.01 | 0.01 | 81 | 1010.1 |
| 20260502224600 | 51 | 179 | 1.0 | 2.0 | 0.00 | 0.01 | 0.01 | 81 | 1010.0 |
| 20260502223520 | 51 | 223 | 1.0 | 3.0 | 0.00 | 0.01 | 0.01 | 80 | 1009.9 |
| 20260502222517 | 51 | 144 | 2.0 | 3.0 | 0.00 | 0.01 | 0.01 | 81 | 1009.9 |
| 20260502221517 | 51 | 234 | 1.0 | 4.0 | 0.00 | 0.01 | 0.01 | 80 | 1010.0 |
| 20260502220518 | 52 | 230 | 4.0 | 5.0 | 0.00 | 0.01 | 0.01 | 78 | 1009.9 |
| 20260502215517 | 52 | 196 | 3.0 | 4.0 | 0.00 | 0.01 | 0.01 | 78 | 1009.9 |
| 20260502214518 | 52 | 166 | 3.0 | 6.0 | 0.00 | 0.01 | 0.01 | 78 | 1010.0 |
| 20260502213518 | 53 | 255 | 2.0 | 4.0 | 0.00 | 0.01 | 0.01 | 76 | 1009.8 |
| 20260502212518 | 53 | 228 | 3.0 | 6.0 | 0.00 | 0.01 | 0.01 | 75 | 1009.6 |
| 20260502211518 | 53 | 233 | 2.0 | 3.0 | 0.00 | 0.01 | 0.01 | 75 | 1009.7 |
| 20260502210518 | 53 | 172 | 4.0 | 7.0 | 0.00 | 0.01 | 0.01 | 75 | 1009.5 |
| 20260502205518 | 53 | 187 | 4.0 | 7.0 | 0.00 | 0.01 | 0.01 | 76 | 1009.6 |
| 20260502204518 | 53 | 202 | 3.0 | 4.0 | 0.00 | 0.01 | 0.01 | 78 | 1009.7 |
| 20260502203518 | 52 | 190 | 2.0 | 3.0 | 0.00 | 0.01 | 0.01 | 78 | 1009.8 |
| 20260502202520 | 52 | 185 | 3.0 | 5.0 | 0.00 | 0.01 | 0.01 | 78 | 1009.7 |
| 20260502201516 | 52 | 206 | 4.0 | 6.0 | 0.00 | 0.01 | 0.01 | 77 | 1009.8 |
| 20260502200516 | 52 | 193 | 5.0 | 8.0 | 0.01 | 0.01 | 0.01 | 76 | 1010.0 |
| 20260502195519 | 52 | 214 | 3.0 | 7.0 | 0.01 | 0.01 | 0.01 | 76 | 1010.2 |
| 20260502194520 | 52 | 213 | 4.0 | 6.0 | 0.01 | 0.01 | 0.01 | 75 | 1010.2 |
| 20260502193540 | 52 | 203 | 2.0 | 4.0 | 0.01 | 0.01 | 0.01 | 74 | 1010.5 |
| 20260502192517 | 52 | 203 | 6.0 | 8.0 | 0.01 | 0.01 | 0.01 | 73 | 1011.0 |
| 20260502191517 | 53 | 154 | 8.0 | 11.0 | 0.01 | 0.01 | 0.01 | 70 | 1010.8 |
| 20260502190517 | 53 | 198 | 9.0 | 13.0 | 0.00 | 0.00 | 0.00 | 64 | 1010.6 |
| 20260502185540 | 54 | 181 | 9.0 | 14.0 | 0.00 | 0.00 | 0.00 | 61 | 1010.9 |
| 20260502184538 | 55 | 173 | 4.0 | 7.0 | 0.00 | 0.00 | 0.00 | 60 | 1010.1 |
| 20260502183518 | 54 | 199 | 4.0 | 7.0 | 0.00 | 0.00 | 0.00 | 65 | 1010.2 |
| 20260502181518 | 54 | 186 | 5.0 | 7.0 | 0.00 | 0.00 | 0.00 | 64 | 1010.3 |
| 20260502180538 | 54 | 169 | 5.0 | 7.0 | 0.00 | 0.00 | 0.00 | 66 | 1010.8 |
| 20260502170517 | 57 | 178 | 3.0 | 5.0 | 0.00 | 0.00 | 0.00 | 50 | 1010.6 |
| 20260502163520 | 58 | 162 | 9.0 | 12.0 | 0.00 | 0.00 | 0.00 | 51 | 1009.1 |
| 20260502162517 | 57 | 181 | 5.0 | 7.0 | 0.00 | 0.00 | 0.00 | 53 | 1009.9 |
| 20260502161517 | 57 | 180 | 5.0 | 8.0 | 0.00 | 0.00 | 0.00 | 55 | 1010.3 |
| 20260502160517 | 57 | 214 | 3.0 | 5.0 | 0.00 | 0.00 | 0.00 | 58 | 1010.2 |
| 20260502151518 | 56 | 174 | 2.0 | 3.0 | 0.00 | 0.00 | 0.00 | 65 | 1010.8 |
| 20260502150518 | 56 | 156 | 6.0 | 8.0 | 0.00 | 0.00 | 0.00 | 65 | 1011.5 |
| 20260502130517 | 52 | 260 | 3.0 | 6.0 | 0.00 | 0.00 | 0.00 | 76 | 1011.3 |
| 20260502123518 | 52 | 259 | 3.0 | 7.0 | 0.00 | 0.00 | 0.00 | 75 | 1011.7 |
| 20260502122518 | 51 | 186 | 3.0 | 6.0 | 0.00 | 0.00 | 0.00 | 75 | 1011.4 |
| 20260502121538 | 51 | 260 | 5.0 | 8.0 | 0.00 | 0.00 | 0.00 | 75 | 1010.9 |
| 20260502120518 | 51 | 158 | 2.0 | 3.0 | 0.00 | 0.00 | 0.00 | 76 | 1011.1 |
| 20260502115518 | 50 | 150 | 3.0 | 5.0 | 0.00 | 0.00 | 0.00 | 78 | 1010.6 |
| 20260502114539 | 49 | 135 | 1.0 | 4.0 | 0.00 | 0.00 | 0.00 | 78 | 1011.4 |
| 20260502113519 | 48 | 158 | 4.0 | 7.0 | 0.00 | 0.00 | 0.00 | 78 | 1011.2 |
| 20260502112519 | 48 | 157 | 4.0 | 6.0 | 0.00 | 0.00 | 0.00 | 78 | 1011.4 |
| 20260502111518 | 48 | 220 | 1.0 | 2.0 | 0.00 | 0.00 | 0.00 | 79 | 1011.5 |
| 20260502110516 | 48 | 177 | 1.0 | 3.0 | 0.00 | 0.00 | 0.00 | 80 | 1011.3 |
| 20260502105519 | 47 | 251 | 2.0 | 3.0 | 0.00 | 0.00 | 0.00 | 80 | 1011.3 |
| 20260502104519 | 47 | 136 | 1.0 | 2.0 | 0.00 | 0.00 | 0.00 | 81 | 1011.2 |
| 20260502103519 | 46 | 160 | 2.0 | 3.0 | 0.00 | 0.00 | 0.00 | 82 | 1011.4 |
| 20260502102537 | 45 | 191 | 2.0 | 2.0 | 0.00 | 0.00 | 0.00 | 85 | 1011.6 |
| 20260502101517 | 44 | 185 | 2.0 | 4.0 | 0.00 | 0.00 | 0.00 | 86 | 1011.8 |
| 20260502100517 | 44 | 208 | 0.0 | 2.0 | 0.00 | 0.00 | 0.00 | 87 | 1011.7 |
| 20260502091517 | 43 | 83 | 0.0 | 1.0 | 0.00 | 0.00 | 0.00 | 89 | 1011.5 |
| 20260502090518 | 43 | 339 | 0.0 | 0.0 | 0.00 | 0.00 | 0.00 | 89 | 1011.6 |
| 20260502070516 | 43 | 260 | 0.0 | 2.0 | 0.00 | 0.00 | 0.00 | 82 | 1012.0 |
| 20260502065517 | 43 | 275 | 1.0 | 2.0 | 0.00 | 0.00 | 0.00 | 82 | 1011.9 |
| 20260502064517 | 43 | 42 | 0.0 | 1.0 | 0.00 | 0.00 | 0.00 | 83 | 1011.7 |
| 20260502063540 | 43 | 0.0 | 0.0 | 0.00 | 0.00 | 0.00 | 83 | 1011.8 | |
| 20260502062518 | 43 | 149 | 0.0 | 0.0 | 0.00 | 0.00 | 0.00 | 81 | 1011.8 |
| 20260502061517 | 42 | 212 | 0.0 | 1.0 | 0.00 | 0.00 | 0.00 | 80 | 1011.9 |
| 20260502060517 | 43 | 121 | 0.0 | 1.0 | 0.00 | 0.00 | 0.00 | 79 | 1011.9 |
| 20260502055519 | 43 | 185 | 0.0 | 1.0 | 0.00 | 0.00 | 0.00 | 79 | 1012.3 |
| 20260502054518 | 44 | 159 | 0.0 | 1.0 | 0.00 | 0.00 | 0.00 | 78 | 1012.2 |
| 20260502053518 | 44 | 0.0 | 0.0 | 0.00 | 0.00 | 0.00 | 77 | 1012.3 | |
| 20260502052518 | 43 | 232 | 0.0 | 1.0 | 0.00 | 0.00 | 0.00 | 77 | 1012.3 |
| 20260502051519 | 43 | 0.0 | 0.0 | 0.00 | 0.00 | 0.00 | 77 | 1012.5 | |
| 20260502050518 | 44 | 161 | 0.0 | 1.0 | 0.00 | 0.00 | 0.00 | 76 | 1012.3 |
| 20260502045539 | 43 | 0.0 | 0.0 | 0.00 | 0.00 | 0.00 | 77 | 1012.4 | |
| 20260502044518 | 43 | 294 | 0.0 | 1.0 | 0.00 | 0.00 | 0.00 | 76 | 1012.6 |
| 20260502043515 | 43 | 178 | 0.0 | 1.0 | 0.00 | 0.00 | 0.00 | 76 | 1012.5 |
| 20260502042519 | 43 | 0.0 | 0.0 | 0.00 | 0.00 | 0.00 | 75 | 1012.3 | |
| 20260502041519 | 44 | 168 | 0.0 | 1.0 | 0.00 | 0.00 | 0.00 | 74 | 1012.2 |